Home   Weather   Colonia   Past weeks

Flag for Micronesia Past Weather in Colonia, Yap, Micronesia — Yesterday and Last 2 Weeks

Now
82 °F

Overcast.


Feels Like: 90 °F
Forecast: 79 / 88 °F
Wind: 5 mph from North

Location: Yap Island

Current Time: Sep 27, 2016 at 10:13:10 PM

Latest Report: Sep 27, 2016 at 8:53 PM


Visibility: 12 mi

Pressure: 29.83 "Hg

Humidity: 85%

Dew Point: 77 °F

Location of ColoniaLocation

Past Weather in Colonia — Graph

°F

Colonia Temperature Yesterday

Maximum temperature yesterday: 85 °F (at 2:50 PM)
Minimum temperature yesterday: 79 °F (at 11:50 PM)
Average temperature yesterday: 82 °F

High & Low Weather Summary for the Past Weeks

 TemperatureHumidityPressure
High96 °F (Sep 14, 5:53 AM)96% (Sep 22, 10:50 AM)29.90 "Hg (Sep 22, 10:50 AM)
Low76 °F (Sep 17, 8:55 PM)50% (Sep 14, 5:53 AM)29.67 "Hg (Sep 23, 3:51 PM)
Average82 °F84%29.79 "Hg
* Reported Sep 12 8:50 PM — Sep 27 8:53 PM, Colonia, Weather by CustomWeather, © 2016

Note: Actual official high and low records may vary slightly from our data, if they occured in-between our weather recording intervals... More about our weather records

Advertising

Colonia Weather History for the Previous 24 Hours

Scroll right to see more
 ConditionsComfort  
Time TempWeatherWind HumidityBarometerVisibility
8:53 PM
Tue, Sep 27
82 °FOvercast.5 mph85%29.83 "Hg12 mi
7:52 PM82 °FOvercast.3 mph87%29.81 "Hg12 mi
6:52 PM82 °FMostly cloudy.No wind87%29.80 "Hg12 mi
5:58 PM83 °FCloudy.No wind86%29.78 "Hg12 mi
4:50 PM83 °FMore clouds than sun.5 mph86%29.78 "Hg12 mi
3:50 PM84 °FScattered showers. More clouds than sun.6 mph80%29.76 "Hg12 mi
2:50 PM86 °FMore clouds than sun.8 mph78%29.76 "Hg12 mi
1:50 PM86 °FMore clouds than sun.8 mph82%29.78 "Hg12 mi
12:53 PM87 °FMore clouds than sun.7 mph77%29.80 "Hg12 mi
11:50 AM87 °FMore clouds than sun.9 mph78%29.83 "Hg12 mi
10:50 AM85 °FMostly cloudy.9 mph79%29.85 "Hg12 mi
9:53 AM83 °FBroken clouds.8 mph82%29.87 "Hg12 mi
8:51 AM81 °FCloudy.12 mph88%29.85 "Hg12 mi
7:50 AM78 °FSprinkles. Cloudy.12 mph94%29.85 "Hg9 mi
6:52 AM79 °FSprinkles. Overcast.9 mph87%29.83 "Hg10 mi
5:52 AM80 °FPassing clouds.9 mph87%29.81 "Hg12 mi
2:53 AM81 °FPassing clouds.9 mph86%29.80 "Hg12 mi
1:51 AM81 °FPassing clouds.9 mph90%29.81 "Hg12 mi
12:50 AM80 °FPartly cloudy.5 mph90%29.83 "Hg12 mi
11:50 PM
Mon, Sep 26
79 °FSprinkles. Overcast.9 mph91%29.86 "Hg10 mi
10:50 PM82 °FPartly cloudy.8 mph85%29.87 "Hg12 mi
Weather by CustomWeather, © 2016

See weather overviewHow to use our weather pages